Tracking 29892 objects as of 21-Nov-2024
HD Live streaming from Space Station
objects crossing your sky now

INSAT 2A

Track INSAT 2A now!
INSAT 2A is classified as:


NORAD ID: 22027
Int'l Code: 1992-041A
Perigee: 35,766.3 km
Apogee: 35,852.3 km
Inclination: 14.6 °
Period: 1,436.9 minutes
Semi major axis: 42180 km
RCS: 1.9952 m2 (large)
Launch date: July 9, 1992
Source: India (IND)
Launch site: FRENCH GUIANA (FRGUI)
Your satellite tracking list
Your tracking list is empty




NASA's NSSDC Master Catalog

Two Line Element Set (TLE):
1 22027U 92041A   24325.36230682 -.00000207  00000-0  00000-0 0  9995
2 22027  14.6192 356.2103 0010188 253.0767 278.2830  1.00216277118305
Source of the keplerian elements: AFSPC